ARIANE 44L+ DEB

Satellite information

Favourite Embed

Satellite Type and Status

DEBRISIN ORBIT

Key statistics

Satellite ARIANE 44L+ DEB at a glance.

Uptime

12136

Days in orbit

Revolutions

≈ 2.2

Per day

Orbit

GTO

Geostationary Transfer Orbit

Inclination

3.1

Latest

Satellite identification and parameters

Extended collection of information and parameters for ARIANE 44L+ DEB.

Object identification

Identified? True

Debris? True

Object name: ARIANE 44L+ DEB

International designator: 1992-021J

Object number (NORAD): 23239

Object ID (CCSDS): 23239

Country: FRANCE (FR)

Current information (Y/N): Y

RCS size: MEDIUM

Orbital parameters

Period: 643.659 minutes

Inclination: 3.1 deg

SMA: 24694.349 km

Apoapsis: 35565.612 km

Periapsis: 1066.816 km

RAAN: 218.4574 deg

Eccentricy: 0.698516

Argument of periapsis: 64.2499 deg

Mean anomaly: 56.9133 deg

Mean motion: 2.23720815 rev/day

Mean motion (dot): -0.00000157 rev/day2

B* drag term: 0.0 1/REarth

Two-line elements (TLE)

Creation date: July 6, 2025, 6:05 p.m.

Reference frame: TEME

Reference center: EARTH

Epoch: July 6, 2025, 8:28 a.m. UTC

TLE line 0: 0 ARIANE 44L+ DEB

TLE line 1: 1 23239U 92021J 25187.35302828 -.00000157 00000-0 00000-0 0 9991

TLE line 2: 2 23239 3.1000 218.4574 6985160 64.2499 56.9133 2.23720815261270

Live tracking on map

Real-time ground track for satellite ARIANE 44L+ DEB.

In-orbit conjunctions

A list of the most updated potential collisions computed for object ARIANE 44L+ DEB.

Target Orbit TCA Probability of collision Miss distance Type
ATLAS 5 CENTAUR DEB MEO 2025-04-18 11:06:51 TBA 2909.0 (m) DEBRIS
ARIANE 5 R/B MEO 2024-10-19 04:17:31 TBA 4141.0 (m) ROCKET BODY

Associated space launch

Télécom 2B and Inmarsat-2 F4 are French and International communications satellites operating in GEO.

ARIANE 44L+ DEB was lifted into orbit during the mission ‘Ariane 44L | Télécom 2B & Inmarsat-2 F4’, on board a Ariane 44L space rocket.

The launch took place on April 15, 1992, 11:25 p.m. from Ariane Launch Area 2.

For more information about the launch, click the button.

Launch to space Ariane 44L | Télécom 2B & Inmarsat-2 F4
Ariane 44L | Télécom 2B & Inmarsat-2 F4

Agency: N/A

Status: Launch Successful

Launch date: April 15, 1992, 11:25 p.m. UTC

Rocket: Ariane 44L

Launch pad: Ariane Launch Area 2

Location: Guiana Space Centre, French Guiana

...

Latest news about this satellite

There are no fresh news available about this satellite. Check back as we update our databases every day.


Newsletter sign-up

Weekly statistics, charts and insights to help you stay on top of the space industry.